Regional Weather Roundup
Issued by NWS

Home | Current Version | Previous Version | Graphics & Text | Print | Product List | Glossary On
Versions: 1 2 3 4 5 6 7 8 9 10 11 12 13 14 15 16 17 18 19 20 21 22 23 24 25 26 27 28 29 30 31 32 33 34 35 36 37 38 39 40 41 42 43 44 45 46 47 48 49 50
000
ASUS43 KIND 240059
RWRIN

WEATHER ROUNDUP FOR INDIANA
NATIONAL WEATHER SERVICE INDIANAPOLIS IN
900 PM EDT SUN APR 23 2017

NOTE: "FAIR" INDICATES FEW OR NO CLOUDS BELOW 12,000 FEET WITH NO
SIGNIFICANT WEATHER AND/OR OBSTRUCTIONS TO VISIBILITY.

* - STATION DOES NOT REPORT WEATHER SUCH AS PRECIPITATION OR FOG.

+ - STATION NOT QUALITY CONTROLLED BY THE NATIONAL WEATHER SERVICE.
    USE DATA WITH CAUTION...ESPECIALLY DEWPOINT AND RELATIVE
    HUMIDITY OBSERVATIONS.

INZ001>003-010>013-019-020-240200-
NORTHWEST INDIANA

CITY           SKY/WX    TMP DP  RH WIND       PRES   REMARKS
GARY /AIRPORT/ PTCLDY    59  23  25 CALM      30.06S
KNOX *+        CLEAR     54   3  13 N10       30.02S
MONTICELLO +   CLEAR     62  30  29 E3        30.01R

$$

LMZ046-743>745-240200-
SOUTHERN LAKE MICHIGAN

STATION/POSITION TIME  TEMP    WIND        PRES    WAVE
                       AIR SEA DIR/SP/G            HT
                 (UTC) (F)     (DEG/KT/KT) (MB)    (FT)
BURNS HARBOR     0040   54      80/  6/  6 1017.9F
MICHIGAN CITY    0030   52      20/  3/  3   N/A

$$

INZ004-005-014>016-021>024-240200-
NORTH CENTRAL INDIANA

CITY           SKY/WX    TMP DP  RH WIND       PRES   REMARKS
GOSHEN         CLEAR     60  30  32 N5        30.02F
SOUTH BEND     CLEAR     52  34  50 NW8       30.06R

$$

INZ006>009-017-018-025>027-240200-
NORTHEAST INDIANA

CITY           SKY/WX    TMP DP  RH WIND       PRES   REMARKS
ANGOLA *+      CLEAR     57  39  51 CALM      30.04R
FORT WAYNE     PTCLDY    56  34  43 E6        30.05R
KENDALLVILLE + CLEAR     60  35  39 E3        30.04R

$$

INZ028-029-035-036-043>045-051>053-240200-
WEST CENTRAL INDIANA

CITY           SKY/WX    TMP DP  RH WIND       PRES   REMARKS
CRAWFORDSVL +  CLEAR     55  32  42 N7        30.00F
LAFAYETTE      CLEAR     61  33  35 E5        30.01R
TERRE HAUTE    CLEAR     62  27  26 N8        29.98S

$$

INZ030>032-037>040-046>048-054>057-064-065-240200-
CENTRAL INDIANA

CITY           SKY/WX    TMP DP  RH WIND       PRES   REMARKS
COLUMBUS       CLEAR     59  30  33 NE7       29.96F
INDIANAPOLIS   PTCLDY    63  29  27 NE12      29.98S
-EAGLE CREEK   CLEAR     65  26  23 NE6       29.99R
KOKOMO +       CLEAR     56  35  45 NE7       30.04R
SHELBYVILLE    CLOUDY    63  32  31 N8        29.97S

$$

INZ033-034-041-042-049-050-058-059-240200-
EAST CENTRAL INDIANA

CITY           SKY/WX    TMP DP  RH WIND       PRES   REMARKS
MUNCIE         CLEAR     60  29  30 NE8       30.01S
RICHMOND +     CLOUDY    55  34  44 NE7       30.00R HAZE

$$

INZ060-061-067>069-081>083-085>088-240200-
SOUTHWEST INDIANA

CITY           SKY/WX    TMP DP  RH WIND       PRES   REMARKS
EVANSVILLE     PTCLDY    62  35  36 E6        29.94R
HUNTINGBURG *+ PTCLDY    61  36  39 E5        29.95R

$$

INZ062-063-066-070>080-084-089>092-240200-
SOUTH CENTRAL AND SOUTHEAST INDIANA

CITY           SKY/WX    TMP DP  RH WIND       PRES   REMARKS
BLOOMINGTON    CLOUDY    63  32  31 N8        29.96R
MADISON *+     CLOUDY    59  34  38 N7        29.96F
SEYMOUR +      CLOUDY    57  39  51 E7        29.96R

$$





USA.gov is the U.S. government's official web portal to all federal, state and local government web resources and services.